Regional Weather Roundup
Issued by NWS

Home | Current Version | Previous Version | Graphics & Text | Print | Product List | Glossary On
Versions: 1 2 3 4 5 6 7 8 9 10 11 12 13 14 15 16 17 18 19 20 21 22 23 24 25 26 27 28 29 30 31 32 33 34 35 36 37 38 39 40 41 42 43 44 45 46 47 48 49 50
000
ASUS44 KMEG 201600
RWRTN
TENNESSEE HOURLY STATE WEATHER ROUNDUP
NATIONAL WEATHER SERVICE MEMPHIS TN
1000 AM CST SAT DEC 20 2014

TNZ002-004-019-021-049-052-054-088>092-201700-
WEST TENNESSEE

CITY           SKY/WX    TMP DP  RH WIND       PRES   REMARKS
MEMPHIS INTL   CLOUDY    43  31  62 E6        30.28S
NWS MEMPHIS      N/A     42 N/A N/A MISG        N/A
JACKSON        CLOUDY    41  30  65 E6        30.28S
DYERSBURG      CLOUDY    39  23  52 NE5       30.31S
UNION CITY     CLOUDY    36  30  80 E3        30.29S
PARIS          CLOUDY    34  27  75 CALM      30.29S
LEXINGTON      CLOUDY    37  28  70 NE7       30.27S WCI  32
SAVANNAH       SUNNY     41  28  60 NE7       30.28S
$$

TNZ008-025-027-028-033-062-065-066-201700-
NORTH MIDDLE TENNESSEE

CITY           SKY/WX    TMP DP  RH WIND       PRES   REMARKS
NASHVILLE      MOSUNNY   39  28  64 NE5       30.30R
CLARKSVILLE    CLOUDY    35  28  75 CALM      30.30S
COOKEVILLE     SUNNY     39  30  70 CALM      30.24S
CROSSVILLE     CLOUDY    39  30  70 CALM      30.21S
$$

TNZ061-075-076-078-094-096-097-201700-
SOUTH MIDDLE TENNESSEE

CITY           SKY/WX    TMP DP  RH WIND       PRES   REMARKS
FAYETTEVILLE   SUNNY     37  28  70 MISG      30.25S
TULLAHOMA      SUNNY     39  28  65 N7        30.26R WCI  34
WINCHESTER     SUNNY     39  34  81 NW6       30.26R WCI  35
SHELBYVILLE    SUNNY     39  30  70 NE3       30.27F
$$

TNZ017-018-042-046-047-201700-
NORTHEAST TENNESSEE

CITY           SKY/WX    TMP DP  RH WIND       PRES   REMARKS
TRI CITIES     CLOUDY    39  35  86 CALM      30.21S
ELIZABETHTON   CLOUDY    39  34  81 E5        30.20S
$$

TNZ012-013-036-069-073-074-201700-
CENTRAL EAST TENNESSEE

CITY           SKY/WX    TMP DP  RH WIND       PRES   REMARKS
KNOXVILLE      CLOUDY    40  31  70 NE3       30.23S
OAK RIDGE      CLOUDY    43  32  65 CALM      30.26R
GATLINBURG     CLOUDY    37  34  87 CALM      30.22F
$$

TNZ083-085-099-201700-
SOUTHEAST TENNESSEE

CITY           SKY/WX    TMP DP  RH WIND       PRES   REMARKS
CHATTANOOGA    CLOUDY    45  33  63 VRB3      30.25R
$$

SKY/WX REPORTED AS FAIR MEANS FEW OR NO CLOUDS BELOW
12 THOUSAND FEET.




USA.gov is the U.S. government's official web portal to all federal, state and local government web resources and services.